STARLINK-1822 (46719 NORAD) Tracking and Keplerian Element Data

This shows tracking and keplerian element data for the satellite.

Feedback or suggestion? Click here.




ElementValue
Catalog46719
NameSTARLINK-1822
Epoch Orbit729
Epoch Day335.83336806
Epoch Year2020
RAAN256.2637
Inclination53.0557
Eccentricity0.0001026
Argument of Perigee62.0174
Mean Anonmoly54.7287
Mean Motion15.62714105
Decay Rate3.095E-05
L11 46719U 20073BB 20335.83336806 .00003095 00000-0 39672-4 0 9997
L22 46719 53.0557 256.2637 0001026 62.0174 54.7287 15.62714105 7297

Live tracking and technical data element details for STARLINK-1822 (NORAD 46719). STARLINK-1822 can be tracked NOW for your location showing map with azimuth and elevation plus other details from your city location.

Track the satellite on the map from your city or location and see movement details for azimuth, elevation, latitude, longitude, range, height, and movement on the map or in text.







IsCatalogInMostPopularTable: catalog: 46719, numindb: 13
Update: records affected: 1



GetName: 46719 STARLINK-1822

Hit Count: updated at: Tue, 01 Dec 2020 21:58:31 GMT